This demonstration page uses our WeatherBlox Daily Observations layout. Learn more.

36.17497, -115.13722

Hourly Observations for October 16, 2018

Temp ( °F °C ) Dew Point ( °F °C ) Humidity (%) Winds ( mph kmh ) Pressure ( in mb ) Visibility ( mi km ) Precip ( " mm )
12:53 am 00:53 Clear 58 14.4 10 -12.2 15 15 NNE 8 13 30.18 1022 10 16.09344 0 0
1:53 am 01:53 Clear 57 13.9 13 -10.6 17 17 N 5 7 30.18 1022 10 16.09344 0 0
2:53 am 02:53 Clear 55 12.8 13 -10.6 19 19 NW 7 11 30.18 1022 10 16.09344 0 0
3:53 am 03:53 Clear 52 11.1 12 -11.1 20 20 NNE 6 9 30.18 1022 10 16.09344 0 0
4:53 am 04:53 Clear 54 12.2 9 -12.8 16 16 NNW 8 13 30.18 1022 10 16.09344 0 0
5:53 am 05:53 Clear 54 12.2 9 -12.8 16 16 NNW 6 9 30.18 1022 10 16.09344 0 0
6:53 am 06:53 Sunny 54 12.2 9 -12.8 16 16 N 14 22 30.18 1022 10 16.09344 0 0
7:53 am 07:53 Sunny 56 13.3 11 -11.7 17 17 N 17 28 30.18 1022 10 16.09344 0 0
8:53 am 08:53 Sunny 58 14.4 13 -10.6 17 17 NNW 15 24 30.18 1022 10 16.09344 0 0
9:53 am 09:53 Sunny 64 17.8 14 -10 14 14 N 15 24 30.18 1022 10 16.09344 0 0
10:53 am 10:53 Sunny 66 18.9 12 -11.1 12 12 NNW 16 26 30.18 1022 10 16.09344 0 0
11:53 am 11:53 Sunny 68 20 12 -11.1 11 11 N 15 24 30.15 1021 10 16.09344 0 0
12:53 pm 12:53 Mostly Cloudy 70 21.1 12 -11.1 10 10 ENE 13 20 30.12 1020 10 16.09344 0 0
1:53 pm 13:53 Mostly Cloudy 70 21.1 15 -9.4 12 12 E 16 26 30.09 1019 10 16.09344 0 0
2:53 pm 14:53 Cloudy 70 21.1 15 -9.4 12 12 ENE 7 11 30.09 1019 10 16.09344 0 0
3:53 pm 15:53 Cloudy 70 21.1 16 -8.9 12 12 E 10 17 30.09 1019 10 16.09344 0 0
4:53 pm 16:53 Cloudy 70 21.1 15 -9.4 12 12 E 15 24 30.09 1019 10 16.09344 0 0
5:53 pm 17:53 Cloudy 68 20 15 -9.4 13 13 E 13 20 30.09 1019 10 16.09344 0 0
6:53 pm 18:53 Cloudy 67 19.4 16 -8.9 14 14 E 10 17 30.12 1020 10 16.09344 0 0
7:53 pm 19:53 Clear 64 17.8 17 -8.3 16 16 NNE 6 9 30.12 1020 10 16.09344 0 0
8:53 pm 20:53 Clear 62 16.7 17 -8.3 17 17 WNW 5 7 30.12 1020 10 16.09344 0 0
10:53 pm 22:53 Clear 56 13.3 21 -6.1 26 26 Calm 30.15 1021 10 16.09344 0 0
11:53 pm 23:53 Mostly Cloudy 57 13.9 24 -4.4 28 28 WNW 7 11 30.15 1021 10 16.09344 0 0

Powered by AerisWeather